QPF
0.00 0.00 0.00 0.00 0.00 0.00 0.00 0.00 0.00 0.00 0.01 0.00 0.00 0.01 0.00 0.00 0.00 0.00 0.00 0.00 0.00 0.00 0.01 0.01 0.01 0.02 0.02 0.01 0.00 0.00 0.00 0.00 0.01 0.00 0.00 0.00 0.00 0.00 0.00 0.00 0.00 0.01 0.02
0.00 0.00 0.00 0.00 0.00 0.00 0.01 0.00 0.00 0.00 0.00 0.00 0.00 0.01 0.01 0.00 0.00 0.00 0.00 0.00 0.00 0.01 0.01 0.00 0.00 0.00 0.00 0.00 0.00 0.00 0.00 0.00 0.00 0.00 0.00 0.00 0.00 0.00 0.00 0.00 0.00 0.00 0.00
0.00 0.00 0.00 0.01 0.01 0.01 0.02 0.02 0.00 0.00 0.00 0.00 0.00 0.00 0.01 0.01 0.00 0.00 0.00 0.00 0.00 0.01 0.00 0.00 0.00 0.00 0.00 0.00 0.00 0.00 0.00 0.00 0.00 0.00 0.00 0.00 0.00 0.00 0.00 0.00 0.00 0.00 0.00
0.00 0.00 0.00 0.01 0.01 0.02 0.02 0.01 0.01 0.00 0.01 0.00 0.00 0.00 0.00 0.00 0.00 0.00 0.00 0.00 0.01 0.01 0.00 0.00 0.00 0.00 0.00 0.00 0.00 0.00 0.00 0.00 0.00 0.00 0.00 0.00 0.00 0.00 0.00 0.00 0.00 0.00 0.00
0.00 0.00 0.00 0.01 0.02 0.03 0.01 0.01 0.00 0.00 0.00 0.00 0.00 0.00 0.01 0.01 0.00 0.00 0.01 0.02 0.04 0.01 0.00 0.00 0.00 0.00 0.00 0.00 0.00 0.00 0.00 0.00 0.00 0.00 0.00 0.00 0.00 0.00 0.00 0.00 0.00 0.00 0.00
0.00 0.00 0.00 0.01 0.03 0.03 0.02 0.02 0.02 0.01 0.00 0.00 0.01 0.01 0.03 0.02 0.00 0.00 0.01 0.04 0.01 0.00 0.00 0.00 0.00 0.00 0.00 0.00 0.00 0.00 0.00 0.00 0.00 0.00 0.00 0.00 0.00 0.00 0.00 0.00 0.00 0.00 0.00
0.04 0.01 0.01 0.02 0.02 0.03 0.03 0.03 0.03 0.04 0.01 0.01 0.01 0.00 0.00 0.04 0.02 0.01 0.00 0.02 0.02 0.00 0.00 0.00 0.00 0.00 0.00 0.00 0.00 0.00 0.00 0.00 0.00 0.00 0.00 0.00 0.00 0.00 0.00 0.00 0.00 0.00 0.00
0.16 0.18 0.10 0.04 0.04 0.03 0.00 0.00 0.01 0.01 0.02 0.03 0.01 0.00 0.01 0.02 0.06 0.04 0.01 0.01 0.03 0.01 0.00 0.00 0.00 0.00 0.00 0.00 0.00 0.00 0.00 0.00 0.00 0.00 0.00 0.00 0.00 0.00 0.00 0.00 0.00 0.00 0.00
0.04 0.11 0.10 0.04 0.00 0.01 0.02 0.01 0.00 0.00 0.00 0.00 0.00 0.01 0.01 0.02 0.04 0.06 0.04 0.02 0.02 0.02 0.00 0.00 0.00 0.00 0.00 0.00 0.00 0.00 0.00 0.00 0.00 0.00 0.00 0.00 0.00 0.00 0.00 0.00 0.00 0.00 0.00
0.00 0.04 0.09 0.10 0.08 0.01 0.00 0.00 0.00 0.00 0.00 0.00 0.00 0.00 0.00 0.01 0.01 0.05 0.04 0.02 0.02 0.02 0.01 0.00 0.00 0.00 0.00 0.00 0.00 0.00 0.00 0.00 0.00 0.00 0.00 0.00 0.00 0.00 0.00 0.00 0.00 0.00 0.00
0.00 0.00 0.01 0.06 0.07 0.11 0.08 0.03 0.02 0.00 0.00 0.00 0.00 0.00 0.00 0.00 0.00 0.01 0.01 0.00 0.00 0.00 0.01 0.01 0.00 0.00 0.00 0.00 0.00 0.00 0.00 0.00 0.00 0.00 0.00 0.00 0.00 0.00 0.00 0.00 0.00 0.00 0.00
0.00 0.00 0.00 0.00 0.01 0.05 0.10 0.11 0.08 0.02 0.00 0.00 0.00 0.00 0.00 0.00 0.00 0.00 0.00 0.00 0.00 0.00 0.00 0.02 0.01 0.00 0.00 0.00 0.00 0.00 0.00 0.00 0.00 0.00 0.00 0.00 0.00 0.00 0.00 0.00 0.00 0.00 0.00
0.00 0.00 0.00 0.00 0.00 0.00 0.01 0.02 0.01 0.00 0.00 0.00 0.00 0.00 0.00 0.00 0.00 0.00 0.00 0.01 0.00 0.00 0.00 0.00 0.02 0.00 0.00 0.00 0.00 0.00 0.00 0.00 0.00 0.00 0.00 0.00 0.00 0.00 0.00 0.00 0.00 0.00 0.00
0.00 0.00 0.00 0.00 0.00 0.00 0.00 0.00 0.00 0.00 0.00 0.00 0.00 0.00 0.00 0.00 0.00 0.00 0.00 0.00 0.00 0.00 0.00 0.00 0.00 0.00 0.00 0.00 0.00 0.00 0.00 0.00 0.00 0.00 0.00 0.00 0.00 0.00 0.00 0.00 0.00 0.00 0.00
0.00 0.00 0.00 0.00 0.00 0.00 0.00 0.00 0.00 0.00 0.00 0.00 0.00 0.00 0.00 0.00 0.00 0.00 0.00 0.00 0.00 0.00 0.01 0.02 0.00 0.00 0.00 0.00 0.00 0.00 0.00 0.00 0.00 0.00 0.00 0.00 0.00 0.00 0.01 0.01 0.00 0.00 0.00
0.00 0.00 0.00 0.00 0.00 0.00 0.00 0.00 0.00 0.00 0.00 0.00 0.00 0.00 0.00 0.00 0.00 0.00 0.00 0.00 0.02 0.00 0.01 0.02 0.03 0.02 0.00 0.00 0.00 0.00 0.00 0.00 0.00 0.00 0.00 0.00 0.00 0.00 0.00 0.02 0.03 0.01 0.01
0.00 0.00 0.00 0.00 0.00 0.00 0.00 0.00 0.00 0.00 0.00 0.00 0.00 0.00 0.00 0.00 0.00 0.00 0.00 0.00 0.00 0.01 0.02 0.03 0.03 0.03 0.01 0.00 0.00 0.00 0.00 0.00 0.00 0.00 0.00 0.00 0.00 0.00 0.00 0.00 0.01 0.02 0.01
0.00 0.00 0.00 0.00 0.00 0.00 0.00 0.00 0.00 0.00 0.00 0.00 0.00 0.00 0.00 0.00 0.00 0.00 0.00 0.00 0.00 0.00 0.01 0.02 0.02 0.02 0.02 0.01 0.00 0.00 0.00 0.00 0.00 0.00 0.00 0.00 0.00 0.00 0.00 0.00 0.00 0.00 0.01
0.00 0.00 0.00 0.00 0.00 0.00 0.00 0.00 0.00 0.00 0.00 0.00 0.00 0.00 0.00 0.00 0.00 0.00 0.00 0.00 0.01 0.01 0.00 0.01 0.01 0.02 0.01 0.00 0.00 0.00 0.00 0.00 0.00 0.00 0.00 0.00 0.00 0.00 0.00 0.00 0.00 0.00 0.00
0.00 0.00 0.00 0.00 0.00 0.00 0.00 0.00 0.00 0.00 0.00 0.00 0.00 0.00 0.00 0.00 0.00 0.00 0.00 0.00 0.02 0.02 0.01 0.00 0.00 0.01 0.01 0.00 0.00 0.00 0.00 0.00 0.00 0.00 0.00 0.00 0.00 0.00 0.00 0.00 0.00 0.00 0.00
0.00 0.00 0.00 0.00 0.00 0.00 0.00 0.00 0.00 0.00 0.00 0.00 0.00 0.00 0.00 0.00 0.00 0.00 0.01 0.01 0.03 0.02 0.01 0.01 0.01 0.01 0.01 0.00 0.00 0.00 0.00 0.00 0.00 0.00 0.00 0.00 0.00 0.00 0.00 0.00 0.00 0.00 0.00
0.00 0.02 0.02 0.01 0.01 0.02 0.00 0.00 0.00 0.00 0.00 0.00 0.00 0.00 0.00 0.00 0.00 0.00 0.01 0.01 0.02 0.02 0.02 0.01 0.01 0.01 0.00 0.00 0.00 0.00 0.00 0.00 0.00 0.00 0.00 0.00 0.00 0.00 0.00 0.00 0.00 0.00 0.00
0.03 0.05 0.07 0.05 0.04 0.02 0.00 0.00 0.00 0.00 0.00 0.00 0.00 0.00 0.00 0.00 0.00 0.00 0.02 0.03 0.01 0.01 0.00 0.00 0.00 0.00 0.00 0.00 0.00 0.00 0.00 0.00 0.00 0.00 0.00 0.00 0.00 0.00 0.00 0.00 0.00 0.00 0.00
0.03 0.05 0.04 0.02 0.00 0.00 0.00 0.00 0.00 0.00 0.00 0.00 0.00 0.00 0.00 0.00 0.00 0.00 0.01 0.03 0.02 0.01 0.01 0.00 0.00 0.01 0.01 0.00 0.00 0.01 0.01 0.01 0.01 0.00 0.00 0.00 0.00 0.00 0.00 0.00 0.01 0.01 0.01
0.02 0.03 0.03 0.01 0.00 0.00 0.00 0.00 0.00 0.01 0.00 0.00 0.00 0.00 0.00 0.00 0.00 0.00 0.00 0.00 0.00 0.00 0.01 0.00 0.00 0.00 0.01 0.01 0.01 0.01 0.01 0.03 0.03 0.02 0.00 0.00 0.00 0.01 0.02 0.03 0.03 0.02 0.01
0.01 0.00 0.00 0.00 0.00 0.00 0.00 0.00 0.00 0.00 0.00 0.00 0.00 0.00 0.00 0.00 0.00 0.00 0.00 0.00 0.00 0.01 0.01 0.01 0.01 0.04 0.05 0.05 0.04 0.05 0.05 0.07 0.04 0.06 0.04 0.04 0.05 0.03 0.03 0.02 0.01 0.01 0.01
MSLP
1013.01 1012.90 1012.92 1012.97 1013.24 1013.61 1013.91 1014.19 1014.35 1014.49 1014.59 1014.78 1015.07 1015.32 1015.52 1015.78 1016.03 1016.29 1016.46 1016.51 1016.61 1016.64 1016.78 1016.97 1016.93 1017.26 1017.35 1017.43 1017.63 1017.86 1017.98 1018.03 1018.11 1018.22 1018.22 1018.38 1018.54 1018.57 1018.61 1018.60 1018.59 1018.50 1018.55
1012.91 1012.88 1012.99 1013.11 1013.29 1013.64 1013.97 1014.27 1014.51 1014.66 1014.83 1014.98 1015.18 1015.48 1015.74 1015.92 1016.06 1016.26 1016.49 1016.62 1016.60 1016.63 1016.84 1016.95 1017.14 1017.35 1017.48 1017.72 1017.98 1018.22 1018.31 1018.38 1018.50 1018.55 1018.69 1018.88 1018.90 1018.85 1018.88 1018.91 1018.80 1018.82 1018.90
1013.05 1013.05 1013.02 1013.14 1013.27 1013.58 1013.96 1014.27 1014.52 1014.75 1014.93 1015.07 1015.31 1015.42 1015.68 1015.99 1016.17 1016.30 1016.42 1016.63 1016.65 1016.68 1016.70 1017.04 1017.40 1017.55 1017.83 1018.07 1018.25 1018.45 1018.59 1018.67 1018.82 1018.96 1019.05 1018.91 1019.02 1019.16 1019.22 1019.23 1019.21 1019.18 1019.13
1013.14 1013.12 1013.17 1013.20 1013.37 1013.58 1013.92 1014.19 1014.47 1014.76 1014.99 1015.17 1015.28 1015.48 1015.71 1016.02 1016.21 1016.28 1016.38 1016.54 1016.66 1016.75 1016.90 1017.20 1017.43 1017.73 1018.19 1018.40 1018.43 1018.53 1018.81 1019.07 1019.21 1019.23 1019.01 1019.02 1019.05 1019.30 1019.32 1019.33 1019.38 1019.37 1019.34
1013.12 1013.03 1013.19 1013.32 1013.51 1013.79 1013.94 1014.22 1014.57 1014.83 1015.04 1015.21 1015.35 1015.46 1015.63 1015.88 1016.25 1016.32 1016.40 1016.53 1016.80 1016.98 1017.14 1017.47 1017.64 1017.86 1018.19 1018.43 1018.57 1018.68 1018.85 1019.18 1019.43 1019.41 1019.29 1019.26 1019.11 1019.30 1019.37 1019.44 1019.49 1019.52 1019.54
1013.43 1013.33 1013.20 1013.36 1013.57 1013.84 1014.05 1014.26 1014.50 1014.86 1015.06 1015.21 1015.38 1015.51 1015.76 1015.90 1016.12 1016.28 1016.44 1016.78 1016.97 1017.07 1017.31 1017.64 1017.91 1018.15 1018.36 1018.49 1018.62 1018.75 1018.97 1019.22 1019.50 1019.43 1019.43 1019.50 1019.35 1019.47 1019.52 1019.53 1019.56 1019.59 1019.66
1013.88 1013.55 1013.44 1013.42 1013.57 1013.85 1014.15 1014.41 1014.49 1014.67 1014.98 1015.20 1015.52 1015.67 1015.85 1016.06 1016.14 1016.23 1016.48 1016.82 1017.07 1017.36 1017.53 1017.74 1017.97 1018.19 1018.47 1018.60 1018.65 1018.86 1019.10 1019.38 1019.36 1019.49 1019.53 1019.53 1019.40 1019.50 1019.60 1019.67 1019.73 1019.76 1019.78
1014.33 1013.93 1013.47 1013.60 1013.65 1013.93 1014.18 1014.47 1014.66 1014.73 1014.92 1015.18 1015.35 1015.56 1015.77 1015.88 1016.13 1016.33 1016.39 1016.87 1017.11 1017.26 1017.61 1017.92 1018.03 1018.19 1018.40 1018.59 1018.72 1018.76 1019.12 1019.42 1019.50 1019.54 1019.57 1019.56 1019.57 1019.60 1019.70 1019.82 1019.88 1019.95 1019.94
1014.55 1014.35 1013.80 1013.57 1013.74 1014.07 1014.33 1014.62 1014.85 1014.98 1015.16 1015.27 1015.39 1015.46 1015.64 1015.87 1016.04 1016.24 1016.42 1016.68 1017.07 1017.28 1017.51 1017.80 1018.13 1018.30 1018.48 1018.52 1018.65 1018.87 1019.13 1019.39 1019.35 1019.42 1019.57 1019.55 1019.65 1019.64 1019.80 1019.86 1019.94 1020.00 1020.08
1014.67 1014.73 1014.63 1014.28 1014.06 1014.16 1014.42 1014.61 1014.85 1014.97 1015.10 1015.12 1015.17 1015.30 1015.47 1015.76 1016.05 1016.23 1016.35 1016.63 1017.00 1017.23 1017.51 1017.71 1018.02 1018.25 1018.51 1018.58 1018.69 1018.79 1019.15 1019.40 1019.30 1019.54 1019.52 1019.47 1019.63 1019.59 1019.82 1019.97 1020.01 1020.06 1020.13
1014.77 1014.84 1014.92 1014.92 1014.77 1014.45 1014.32 1014.46 1014.58 1014.76 1014.90 1014.92 1014.99 1015.17 1015.39 1015.54 1015.76 1016.03 1016.30 1016.55 1016.78 1017.08 1017.37 1017.73 1017.97 1018.20 1018.41 1018.68 1018.83 1018.96 1019.11 1019.14 1019.31 1019.38 1019.45 1019.64 1019.62 1019.53 1019.66 1019.84 1019.96 1020.03 1020.11
1014.98 1014.89 1014.96 1015.01 1014.99 1015.03 1014.95 1014.70 1014.65 1014.82 1014.86 1014.79 1014.85 1015.07 1015.25 1015.40 1015.50 1015.79 1015.99 1016.41 1016.63 1016.83 1017.05 1017.58 1017.86 1018.20 1018.48 1018.49 1018.74 1019.08 1018.96 1018.91 1019.09 1019.21 1019.29 1019.50 1019.51 1019.41 1019.61 1019.75 1019.83 1019.98 1020.05
1015.11 1014.91 1014.87 1014.93 1015.04 1015.02 1014.95 1014.97 1014.92 1014.80 1014.79 1014.96 1014.84 1014.92 1015.01 1015.06 1015.28 1015.56 1015.86 1016.22 1016.41 1016.73 1016.79 1017.23 1017.66 1017.85 1018.10 1018.37 1018.58 1018.74 1018.96 1018.99 1018.99 1019.08 1019.17 1019.41 1019.37 1019.22 1019.31 1019.59 1019.70 1019.77 1019.96
1015.01 1014.61 1014.61 1014.61 1014.92 1014.86 1014.90 1014.99 1014.78 1014.61 1014.84 1014.85 1015.02 1015.02 1015.38 1015.06 1015.31 1015.03 1015.01 1015.61 1016.07 1016.30 1016.59 1016.81 1017.12 1017.51 1017.88 1018.29 1018.50 1018.57 1018.81 1018.95 1018.84 1018.90 1018.88 1019.23 1019.29 1019.12 1018.98 1019.19 1019.41 1019.54 1019.58
1014.81 1014.40 1014.18 1014.35 1014.51 1014.60 1014.74 1014.77 1014.69 1014.43 1014.64 1014.82 1015.07 1015.09 1015.13 1015.42 1015.45 1015.22 1015.19 1014.99 1014.87 1015.64 1016.19 1016.48 1016.54 1017.03 1017.41 1017.98 1018.39 1018.63 1018.62 1018.71 1018.76 1018.72 1018.64 1018.89 1019.00 1018.96 1018.77 1018.77 1018.99 1019.20 1019.28
1014.44 1014.18 1014.01 1014.00 1014.10 1014.34 1014.47 1014.54 1014.55 1014.66 1014.80 1014.86 1014.96 1014.93 1014.89 1014.92 1015.08 1015.26 1015.22 1015.25 1015.21 1014.92 1014.98 1015.50 1016.28 1016.58 1017.18 1017.58 1018.10 1018.38 1018.61 1018.59 1018.48 1018.56 1018.54 1018.41 1018.61 1018.66 1018.65 1018.56 1018.54 1018.66 1018.80
1013.82 1013.62 1013.66 1013.53 1013.63 1013.87 1013.89 1014.13 1014.26 1014.42 1014.56 1014.50 1014.51 1014.69 1014.70 1014.58 1014.59 1014.80 1014.92 1015.08 1014.98 1015.16 1015.13 1015.31 1015.71 1016.21 1016.76 1017.11 1017.80 1017.89 1018.06 1018.18 1018.18 1018.13 1018.21 1018.20 1018.08 1018.15 1018.25 1018.25 1018.25 1018.22 1018.28
1013.25 1013.16 1013.07 1013.12 1013.12 1013.31 1013.53 1013.76 1013.90 1014.05 1014.16 1014.15 1014.34 1014.42 1014.47 1014.52 1014.36 1014.43 1014.39 1014.43 1014.50 1014.70 1014.98 1015.45 1015.40 1015.89 1016.27 1016.60 1017.42 1017.60 1017.58 1017.66 1017.88 1017.77 1017.64 1017.66 1017.66 1017.65 1017.72 1017.79 1017.85 1017.91 1017.86
1012.60 1012.60 1012.64 1012.73 1012.65 1012.82 1013.08 1013.31 1013.45 1013.63 1013.82 1013.92 1014.14 1014.00 1013.97 1014.04 1013.90 1013.88 1013.86 1013.91 1014.01 1014.14 1014.50 1014.71 1015.19 1015.29 1015.55 1016.09 1016.81 1017.33 1017.53 1016.93 1017.13 1017.42 1017.02 1016.99 1016.98 1017.23 1017.15 1017.12 1017.31 1017.41 1017.52
1012.24 1012.17 1012.20 1012.31 1012.31 1012.54 1012.88 1013.18 1013.48 1013.58 1013.58 1013.59 1013.47 1013.35 1013.27 1013.28 1013.32 1013.24 1013.23 1013.40 1013.44 1013.75 1013.97 1014.01 1014.36 1014.77 1015.09 1015.36 1015.52 1016.31 1016.85 1016.24 1016.50 1016.73 1016.63 1016.24 1016.27 1016.52 1016.62 1016.52 1016.67 1016.82 1017.06
1011.78 1011.73 1011.56 1011.60 1011.83 1012.19 1012.57 1012.84 1012.96 1012.82 1012.84 1012.94 1012.85 1012.77 1012.63 1012.65 1012.73 1012.67 1012.64 1012.70 1012.83 1012.85 1013.10 1013.39 1013.55 1013.97 1014.48 1015.32 1015.68 1015.60 1016.33 1016.01 1016.11 1015.77 1015.67 1015.62 1015.55 1015.75 1015.91 1015.89 1016.05 1016.10 1016.23
1011.42 1011.54 1011.42 1011.37 1011.63 1011.82 1012.11 1012.38 1012.49 1012.50 1012.47 1012.42 1012.31 1012.12 1011.97 1011.85 1011.82 1011.95 1011.86 1011.78 1011.81 1011.98 1012.08 1012.46 1012.85 1013.23 1013.75 1014.39 1014.75 1015.73 1015.94 1015.08 1014.63 1014.71 1014.89 1015.00 1014.82 1014.96 1015.16 1015.21 1015.35 1015.47 1015.64
1012.22 1011.91 1011.39 1011.44 1011.57 1011.84 1012.23 1012.37 1012.35 1012.43 1012.29 1012.22 1011.90 1011.61 1011.32 1010.97 1010.83 1010.83 1010.85 1010.82 1010.83 1010.74 1010.85 1011.28 1011.89 1012.16 1012.82 1013.91 1013.82 1014.04 1014.49 1013.82 1014.09 1013.74 1013.97 1013.92 1014.19 1014.46 1014.41 1014.56 1014.71 1014.86 1014.98
1013.10 1012.43 1011.89 1011.96 1012.19 1012.16 1012.25 1012.20 1012.09 1012.11 1012.02 1011.68 1011.25 1010.76 1010.28 1009.99 1009.89 1009.74 1009.84 1009.96 1010.13 1010.10 1010.02 1010.08 1011.04 1011.51 1012.07 1012.44 1013.87 1013.03 1012.97 1013.65 1013.87 1013.81 1013.53 1013.58 1013.69 1013.81 1013.93 1014.12 1014.11 1014.28 1014.46
1013.76 1013.24 1012.95 1012.61 1012.68 1012.85 1012.81 1012.52 1011.99 1011.84 1011.72 1011.33 1010.84 1010.13 1009.80 1009.48 1009.36 1009.16 1009.13 1009.29 1009.58 1009.81 1009.88 1010.34 1010.54 1011.11 1011.49 1011.89 1012.32 1013.11 1012.81 1013.16 1013.75 1013.81 1013.49 1013.46 1013.53 1013.42 1013.59 1013.82 1013.99 1013.95 1014.16
1014.69 1014.23 1013.90 1013.66 1013.87 1013.75 1013.66 1013.19 1012.62 1012.09 1012.04 1011.89 1011.23 1010.64 1010.31 1009.45 1008.90 1008.38 1008.47 1008.69 1008.84 1009.20 1009.55 1009.97 1010.48 1011.00 1011.42 1011.86 1011.99 1012.54 1012.41 1012.49 1012.90 1013.26 1013.46 1013.40 1013.46 1012.75 1013.24 1013.46 1013.55 1013.41 1013.57
Thickness
5755 5757 5758 5759 5758 5757 5757 5758 5758 5758 5758 5757 5756 5755 5754 5752 5750 5749 5748 5748 5748 5748 5747 5745 5746 5744 5744 5744 5743 5741 5739 5738 5737 5736 5735 5734 5732 5732 5731 5731 5731 5730 5729
5754 5755 5755 5755 5755 5753 5752 5752 5752 5753 5753 5753 5752 5751 5750 5749 5749 5748 5746 5746 5747 5747 5746 5745 5743 5742 5742 5741 5739 5737 5737 5735 5734 5733 5731 5730 5729 5729 5728 5728 5727 5726 5725
5749 5749 5750 5751 5751 5750 5749 5748 5748 5748 5748 5749 5748 5748 5747 5746 5746 5746 5745 5744 5745 5746 5746 5744 5741 5740 5737 5737 5736 5734 5733 5732 5731 5729 5728 5728 5727 5726 5725 5724 5723 5723 5722
5744 5745 5745 5747 5747 5746 5745 5745 5744 5742 5742 5743 5744 5745 5744 5742 5742 5743 5743 5743 5743 5743 5743 5741 5739 5737 5734 5733 5733 5732 5730 5728 5727 5726 5727 5726 5725 5723 5722 5722 5721 5720 5719
5742 5743 5742 5742 5742 5741 5741 5741 5739 5738 5737 5737 5739 5739 5740 5740 5738 5739 5739 5740 5739 5738 5739 5737 5736 5735 5733 5731 5730 5729 5728 5726 5724 5723 5723 5723 5723 5721 5720 5719 5718 5717 5716
5735 5736 5738 5738 5737 5736 5736 5736 5736 5734 5733 5733 5733 5733 5733 5734 5734 5734 5734 5733 5734 5735 5734 5732 5731 5730 5729 5728 5728 5727 5725 5723 5721 5721 5720 5719 5719 5718 5717 5716 5715 5715 5713
5725 5727 5730 5732 5733 5733 5731 5731 5731 5731 5728 5728 5726 5727 5726 5726 5727 5729 5729 5729 5728 5728 5728 5727 5727 5726 5725 5724 5724 5723 5721 5720 5718 5717 5717 5717 5717 5715 5714 5713 5713 5711 5711
5713 5718 5723 5724 5725 5726 5726 5724 5724 5725 5724 5722 5722 5722 5722 5722 5722 5722 5724 5722 5722 5723 5723 5721 5721 5721 5721 5721 5720 5720 5718 5716 5715 5714 5714 5713 5713 5712 5711 5710 5709 5708 5707
5703 5707 5713 5717 5719 5718 5718 5717 5717 5717 5716 5715 5715 5716 5716 5716 5717 5716 5716 5716 5715 5716 5717 5716 5715 5715 5715 5716 5717 5715 5714 5712 5712 5712 5710 5710 5709 5708 5707 5707 5705 5704 5703
5694 5695 5699 5705 5709 5710 5710 5710 5709 5710 5710 5710 5711 5711 5711 5711 5709 5710 5710 5709 5708 5709 5709 5710 5710 5710 5709 5710 5711 5712 5710 5708 5708 5706 5707 5706 5706 5705 5703 5702 5701 5701 5700
5687 5687 5687 5690 5694 5700 5703 5703 5703 5703 5704 5706 5706 5706 5705 5705 5704 5703 5703 5703 5703 5703 5703 5702 5702 5703 5704 5703 5704 5704 5705 5704 5703 5702 5702 5701 5700 5701 5701 5699 5697 5697 5695
5676 5679 5680 5681 5683 5686 5690 5693 5695 5693 5696 5698 5699 5698 5698 5699 5699 5698 5698 5697 5696 5696 5697 5696 5695 5695 5695 5696 5696 5696 5697 5699 5698 5698 5698 5698 5697 5697 5695 5695 5694 5693 5691
5664 5670 5672 5673 5674 5677 5680 5684 5685 5686 5688 5690 5693 5692 5694 5695 5696 5694 5692 5691 5690 5689 5690 5689 5688 5689 5687 5688 5689 5690 5689 5690 5691 5692 5692 5692 5693 5693 5692 5690 5690 5689 5687
5652 5660 5664 5666 5665 5669 5671 5671 5675 5679 5681 5685 5686 5686 5684 5687 5687 5690 5691 5688 5685 5684 5684 5683 5683 5683 5682 5680 5681 5682 5683 5683 5684 5686 5687 5687 5687 5688 5689 5687 5685 5685 5685
5642 5648 5655 5657 5658 5660 5662 5664 5667 5673 5674 5675 5675 5677 5678 5677 5678 5681 5681 5684 5687 5682 5679 5678 5679 5677 5677 5674 5673 5673 5675 5677 5678 5680 5681 5682 5682 5683 5684 5684 5682 5680 5680
5636 5638 5642 5647 5649 5650 5654 5655 5658 5662 5664 5664 5664 5667 5669 5670 5671 5671 5674 5674 5676 5679 5679 5678 5674 5673 5670 5668 5667 5667 5666 5668 5672 5673 5674 5676 5678 5678 5678 5678 5678 5678 5676
5630 5632 5633 5636 5640 5643 5648 5649 5648 5651 5652 5656 5657 5658 5660 5663 5665 5665 5668 5668 5669 5669 5669 5670 5670 5669 5665 5664 5661 5662 5662 5663 5664 5667 5669 5670 5672 5675 5674 5674 5674 5675 5674
5620 5624 5626 5628 5631 5633 5636 5638 5639 5640 5643 5647 5647 5649 5650 5651 5655 5658 5663 5665 5664 5664 5663 5661 5665 5663 5660 5658 5652 5656 5657 5658 5657 5660 5664 5666 5667 5668 5671 5671 5671 5670 5671
5610 5613 5617 5619 5623 5624 5625 5628 5632 5635 5636 5638 5637 5640 5641 5643 5648 5652 5656 5658 5658 5659 5658 5659 5657 5658 5657 5651 5647 5647 5647 5655 5656 5652 5659 5662 5664 5662 5664 5667 5667 5666 5665
5593 5601 5605 5608 5612 5614 5615 5618 5619 5623 5626 5627 5630 5633 5635 5638 5641 5645 5648 5649 5651 5652 5653 5655 5652 5650 5648 5646 5646 5643 5642 5646 5647 5651 5653 5659 5660 5658 5659 5662 5662 5662 5660
5581 5588 5596 5599 5603 5605 5606 5609 5611 5614 5617 5621 5625 5627 5630 5632 5633 5639 5643 5644 5646 5649 5649 5647 5647 5642 5639 5633 5631 5634 5632 5639 5641 5649 5648 5652 5655 5653 5653 5656 5655 5656 5656
5569 5572 5581 5587 5593 5596 5597 5599 5603 5604 5609 5614 5618 5622 5626 5629 5631 5633 5639 5642 5643 5643 5645 5642 5638 5635 5631 5628 5627 5622 5620 5636 5646 5645 5644 5646 5651 5649 5649 5650 5651 5651 5650
5542 5554 5568 5575 5579 5582 5583 5587 5590 5595 5601 5606 5611 5616 5621 5627 5629 5630 5634 5638 5641 5641 5640 5639 5633 5629 5624 5619 5625 5623 5619 5631 5635 5640 5642 5644 5642 5642 5645 5643 5644 5644 5644
5524 5539 5550 5557 5561 5569 5573 5578 5583 5588 5593 5599 5605 5612 5619 5625 5627 5628 5630 5633 5633 5633 5633 5634 5628 5623 5619 5619 5610 5623 5628 5626 5622 5625 5632 5632 5633 5634 5635 5634 5636 5637 5637
5514 5526 5536 5545 5551 5556 5561 5568 5577 5583 5587 5591 5598 5607 5614 5619 5621 5623 5625 5627 5626 5622 5622 5620 5618 5615 5614 5616 5616 5612 5617 5617 5612 5612 5617 5618 5619 5622 5624 5625 5626 5628 5628
5506 5516 5524 5532 5536 5543 5548 5555 5563 5571 5574 5576 5583 5592 5598 5609 5615 5622 5621 5621 5619 5617 5617 5614 5612 5609 5607 5605 5607 5606 5608 5610 5609 5604 5602 5607 5609 5619 5615 5614 5615 5621 5621